Hourly Data Report for October 11, 2018

CARBERRY CS
MANITOBA
Current Station Operator: ECCC - MSC

49°54'20.900" N
99°21'26.800" W
383.50 m
5010547
71170
WZE

Download Data

Hourly Data (October 2018)
Hourly Data Report for October 11, 2018
TIME
LST
Temp Definition
°C
Dew Point Definition
°C
Rel Hum Definition
%
Precip. Amount Definition
mm

Wind Dir Definition
10's deg

Wind Spd Definition
km/h
Visibility Definition
km
Stn Press Definition
kPa
Hmdx Definition


Wind Chill Definition


Weather Definition


00:00 -2.6 -4.8 85 0.0 34 21   97.31   -9 LegendNANA
01:00 -2.6 -5.7 79 0.0 33 18   97.29   -8 LegendNANA
02:00 -2.7 -6.7 74 0.0 32 19   97.32   -8 LegendNANA
03:00 -3.2 -7.3 73 0.0 34 19   97.29   -9 LegendNANA
04:00 -3.1 -6.8 76 0.0 34 17   97.29   -9 LegendNANA
05:00 -3.0 -6.6 77 0.0 32 15   97.27   -8 LegendNANA
06:00 -3.2 -6.8 76 0.0 31 16   97.27   -9 LegendNANA
07:00 -3.2 -6.9 76 0.0 33 14   97.27   -8 LegendNANA
08:00 -3.2 -7.2 74 0.0 31 14   97.28   -8 LegendNANA
09:00 -3.2 -7.2 74 0.0 33 11   97.31   -7 LegendNANA
10:00 -3.0 -7.9 69 0.0 30 16   97.30   -8 LegendNANA
11:00 -2.8 -7.8 68 0.0 30 16   97.27   -8 LegendNANA
12:00 -2.2 -8.2 63 0.0 33 12   97.25   -6 LegendNANA
13:00 -1.5 -8.3 60 0.0 31 15   97.21   -6 LegendNANA
14:00 -0.6 -8.2 57 0.0 30 15   97.14   -5 LegendNANA
15:00 0.8 -7.8 53 0.0 32 13   97.12     LegendNANA
16:00 1.4 -7.8 50 0.0 32 7   97.05     LegendNANA
17:00 0.9 -7.5 53 0.0 32 13   97.04     LegendNANA
18:00 -2.5 -8.3 65 0.0 31 8   97.06   -6 LegendNANA
19:00 -3.5 -7.8 72 0.0 6 10   97.07   -7 LegendNANA
20:00 -5.6 -8.3 81 0.0 9 8   97.06   -9 LegendNANA
21:00 -7.1 -9.0 86 0.0 14 4   97.06   -9 LegendNANA
22:00 -7.5 -8.7 91 0.0 15 3   97.05   -9 LegendNANA
23:00 -8.5 -9.6 92 0.0   0   97.01     LegendNANA

Notes on Data Quality.

Legend

  • E = Estimated
  • M = Missing
  • NA = Not Available*
  • [empty] = Indicates an unobserved value
Date modified: